Terminal Aerodrome Forecast
Issued by NWS Blacksburg, VA

Home | Current Version | Previous Version | Text Only | Print | Product List | Glossary On
Versions: 1 2 3 4 5 6 7 8 9 10 11 12 13 14 15 16 17 18 19 20 21 22 23 24 25 26 27 28 29 30 31
000
FTUS41 KRNK 161746
TAFROA
TAF
KROA 161746Z 1618/1718 01006KT P6SM BKN035 OVC045
     FM170600 04003KT P6SM BKN012
     FM171000 06002KT 4SM -DZ BR OVC006
     FM171400 07003KT P6SM SCT008 BKN012=

USA.gov is the U.S. government's official web portal to all federal, state and local government web resources and services.